Stations météo

réclame
Mon MeteoGroup
Ajaccio, France (7761): Température de l'air & dewpoint: 17.09.2017 22:00:00 - 23.09.2017 22:00:00 (CEST)Ajaccio, France (7761): Température de l'air 5cm: 17.09.2017 22:00:00 - 23.09.2017 22:00:00 (CEST)Ajaccio, France (7761): Température de l'air -20cm & Température de l'air -100cm: 17.09.2017 22:00:00 - 23.09.2017 22:00:00 (CEST)Ajaccio, France (7761): Vitesse du vent & gusts: 17.09.2017 22:00:00 - 23.09.2017 22:00:00 (CEST)Ajaccio, France (7761): Direction du vent: 17.09.2017 22:00:00 - 23.09.2017 22:00:00 (CEST)Ajaccio, France (7761): reduced air pressure: 17.09.2017 22:00:00 - 23.09.2017 22:00:00 (CEST)Ajaccio, France (7761): visibility: 17.09.2017 22:00:00 - 23.09.2017 22:00:00 (CEST)Ajaccio, France (7761): Ensoleillement: 17.09.2017 22:00:00 - 23.09.2017 22:00:00 (CEST)Ajaccio, France (7761): Quantités de précipitations: 17.09.2017 22:00:00 - 23.09.2017 22:00:00 (CEST)
Date & Time tt [°C] td [°C] tt 5cm [°C] tt -20cm [°C] tt -100cm [°C] ff [km/h] ff [knt] fx [km/h] fx [knt] dd ppp [hPa] vv [km] sd [min] rr [mm]
23.09.2017 22:00:00 - - - - - - - - - - - - - -
23.09.2017 21:00:00 19,0 13,2 17,9 23,3 24,9 4 2 8 5 NNE 1019,9 60 0 0,0
23.09.2017 20:00:00 21,0 12,9 19,1 23,1 24,8 0 0 10 6 N 1019,6 60 0 0,0
23.09.2017 19:00:00 22,5 14,3 21,8 22,9 24,8 8 4 16 9 S 1019,4 60 53 0,0
23.09.2017 18:00:00 23,4 13,0 24,1 22,6 24,8 8 5 14 8 SW 1019,4 30 39 0,0
23.09.2017 17:00:00 25,1 12,7 27,4 22,3 24,9 9 5 17 9 SSW 1019,7 60 60 0,0
23.09.2017 16:00:00 25,7 13,2 27,4 22,0 24,9 12 6 21 11 SSW 1020,0 30 60 0,0
23.09.2017 15:00:00 25,9 14,4 32,3 21,8 24,9 14 8 19 10 SSW 1020,0 30 60 0,0
23.09.2017 14:00:00 25,7 12,5 30,5 21,6 24,9 11 6 22 12 SW 1020,3 30 60 0,0
23.09.2017 13:00:00 24,0 16,0 30,5 21,5 24,9 15 8 21 12 SSW 1020,3 30 60 0,0
23.09.2017 12:00:00 23,1 14,1 30,9 21,5 24,9 13 7 17 9 WSW 1021,0 60 60 0,0
23.09.2017 11:00:00 22,6 12,2 27,5 21,6 24,9 5 3 11 6 WSW 1021,3 60 60 0,0
23.09.2017 10:00:00 20,8 11,4 20,5 21,7 24,9 4 2 10 5 NNE 1021,3 30 60 0,0
23.09.2017 09:00:00 16,9 11,8 14,8 21,9 24,9 5 3 15 8 NE 1021,1 30 60 0,0
23.09.2017 08:00:00 14,0 10,4 12,5 22,1 25,0 8 5 16 9 NE 1021,4 30 18 0,0
23.09.2017 07:00:00 13,7 10,1 12,8 22,2 25,0 11 6 17 9 NE 1021,1 30 0 0,0
23.09.2017 06:00:00 14,1 10,7 11,7 22,4 25,0 15 8 21 11 NNE 1020,7 30 0 0,0
23.09.2017 05:00:00 12,4 10,1 11,7 22,6 25,0 13 7 19 10 NE 1020,9 60 0 0,0
23.09.2017 04:00:00 13,8 10,6 13,0 22,7 25,0 10 6 18 10 NE 1021,2 60 0 0,0
23.09.2017 03:00:00 13,7 10,9 12,7 22,8 25,0 11 6 19 10 NE 1021,6 60 0 0,0
23.09.2017 02:00:00 14,2 11,0 13,5 23,0 25,0 11 6 18 10 NE 1022,1 60 0 0,0
23.09.2017 01:00:00 14,7 11,5 13,7 23,0 25,0 11 6 16 8 NE 1021,8 60 0 0,0
23.09.2017 00:00:00 14,5 11,1 13,7 23,1 25,0 11 6 16 8 NE 1022,0 60 0 0,0
22.09.2017 23:00:00 15,8 11,4 14,7 23,1 25,1 9 5 13 7 NE 1021,9 59 0 0,0
22.09.2017 22:00:00 16,5 11,8 15,4 23,1 25,1 10 5 13 7 NE 1021,8 60 0 0,0
22.09.2017 21:00:00 17,6 11,2 16,0 23,0 25,1 6 4 9 5 ENE 1021,6 60 0 0,0
22.09.2017 20:00:00 19,7 11,2 17,3 22,8 25,1 3 2 10 5 E 1021,1 7 7 0,0
22.09.2017 19:00:00 21,9 10,4 21,1 22,5 25,1 8 5 14 8 S 1020,9 60 60 0,0
22.09.2017 18:00:00 23,4 10,1 24,2 22,3 25,1 10 5 19 10 S 1020,8 30 60 0,0
22.09.2017 17:00:00 24,1 12,7 25,9 21,9 25,1 14 7 27 15 SSW 1020,2 60 60 0,0
22.09.2017 16:00:00 23,5 12,8 25,6 21,6 25,1 15 8 21 12 SW 1020,4 60 60 0,0
22.09.2017 15:00:00 23,4 14,4 30,2 21,4 25,1 15 8 26 14 SW 1020,7 30 60 0,0
22.09.2017 14:00:00 23,5 14,8 30,3 21,2 25,1 17 9 24 13 SW 1021,1 30 60 0,0
22.09.2017 13:00:00 22,9 13,4 30,6 21,2 25,2 16 9 25 14 SW 1021,4 60 60 0,0
22.09.2017 12:00:00 22,3 11,7 30,5 21,2 25,2 10 6 21 12 SW 1021,4 60 60 0,0
22.09.2017 11:00:00 20,8 11,4 27,1 21,3 25,2 6 4 11 6 SW 1021,6 30 60 0,0
22.09.2017 10:00:00 20,0 9,5 19,4 21,4 25,2 3 2 11 6 E 1021,4 30 60 0,0
22.09.2017 09:00:00 15,3 10,3 13,8 21,6 25,2 8 4 13 7 NE 1020,8 30 60 0,0
22.09.2017 08:00:00 12,6 8,7 10,5 21,8 25,3 9 5 20 11 NE 1020,5 30 19 0,0
22.09.2017 07:00:00 11,5 8,5 10,7 21,9 25,2 13 7 18 10 NNE 1020,2 30 0 0,0
22.09.2017 06:00:00 11,4 9,0 10,4 22,1 25,3 11 6 20 11 NE 1020,4 60 0 0,0
22.09.2017 05:00:00 11,9 9,3 11,0 22,3 25,3 11 6 15 8 NE 1020,6 60 0 0,0
22.09.2017 04:00:00 12,6 9,6 11,7 22,5 25,3 10 5 17 9 NE 1020,5 60 0 0,0
22.09.2017 03:00:00 12,9 9,9 11,9 22,6 25,3 13 7 19 10 NNE 1020,7 60 0 0,0
22.09.2017 02:00:00 12,9 10,1 12,2 22,7 25,3 11 6 16 9 NE 1021,0 60 0 0,0
22.09.2017 01:00:00 13,2 10,6 12,2 22,8 25,3 9 5 14 8 NE 1020,8 60 0 0,0
22.09.2017 00:00:00 14,2 10,8 13,5 22,9 25,4 10 5 16 8 NE 1020,4 60 0 0,0
21.09.2017 23:00:00 14,7 11,5 13,8 22,9 25,4 9 5 13 7 NNE 1020,2 60 0 0,0
21.09.2017 22:00:00 15,8 12,4 15,0 22,9 25,4 9 5 12 6 NNE 1020,3 59 0 0,0
21.09.2017 21:00:00 17,9 13,0 16,4 22,9 25,5 5 3 8 4 ENE 1020,0 55 0 0,0
21.09.2017 20:00:00 19,2 13,1 17,8 22,6 25,4 5 3 12 7 E 1019,7 40 7 0,0
21.09.2017 19:00:00 21,0 12,7 20,1 22,4 25,5 9 5 19 11 NW 1019,4 60 60 0,0
21.09.2017 18:00:00 22,7 11,1 22,7 22,1 25,5 13 7 26 14 WNW 1019,4 10 60 0,0
21.09.2017 17:00:00 22,4 13,7 23,9 21,8 25,5 16 9 24 13 SSW 1019,3 40 60 0,0
21.09.2017 16:00:00 22,4 13,5 24,5 21,4 25,5 18 10 28 15 SSW 1019,5 40 60 0,0
21.09.2017 15:00:00 22,7 13,7 29,3 21,2 25,5 17 9 23 12 SSW 1019,7 40 60 0,0
21.09.2017 14:00:00 22,4 13,5 29,7 21,0 25,5 18 10 24 13 SW 1019,9 60 60 0,0
21.09.2017 13:00:00 21,8 12,6 29,9 20,9 25,5 10 5 16 9 SW 1020,2 40 60 0,0
21.09.2017 12:00:00 20,8 11,7 29,8 21,0 25,6 10 6 14 7 SW 1020,4 40 60 0,0
21.09.2017 11:00:00 20,0 11,0 24,6 21,1 25,6 5 3 12 7 WSW 1020,5 40 60 0,0
21.09.2017 10:00:00 18,4 10,2 18,2 21,3 25,6 6 3 14 8 NE 1020,4 60 60 0,0
21.09.2017 09:00:00 14,2 9,6 12,5 21,4 25,6 8 5 17 9 NNE 1020,2 40 60 0,0
21.09.2017 08:00:00 11,6 8,3 10,1 21,6 25,6 14 8 21 11 NNE 1020,1 40 19 0,0
21.09.2017 07:00:00 10,9 8,3 9,8 21,7 25,7 13 7 18 10 NNE 1019,8 40 0 0,0
21.09.2017 06:00:00 11,8 8,8 10,4 21,9 25,7 11 6 15 8 NNE 1019,8 60 0 0,0
21.09.2017 05:00:00 11,8 9,2 10,9 22,1 25,7 9 5 16 9 NE 1019,9 60 0 0,0
21.09.2017 04:00:00 11,8 9,7 11,0 22,2 25,7 13 7 19 10 NE 1019,9 60 0 0,0
21.09.2017 03:00:00 12,0 9,9 10,9 22,4 25,7 10 5 13 7 NE 1019,9 55 0 0,0
21.09.2017 02:00:00 12,4 9,8 11,5 22,5 25,7 9 5 12 7 NE 1019,9 57 0 0,0
21.09.2017 01:00:00 12,9 11,0 11,8 22,6 25,8 10 6 16 9 NE 1019,5 56 0 0,0
21.09.2017 00:00:00 13,4 11,5 12,6 22,7 25,8 8 4 11 6 NE 1019,4 41 0 0,0
20.09.2017 23:00:00 14,5 12,0 13,4 22,7 25,8 5 3 10 5 NE 1019,2 48 0 0,0
20.09.2017 22:00:00 15,3 12,1 14,2 22,7 25,8 8 4 15 8 NE 1019,0 45 0 0,0
20.09.2017 21:00:00 16,6 12,3 15,3 22,6 25,8 5 3 8 5 E 1018,8 57 0 0,0
20.09.2017 20:00:00 18,1 12,3 16,3 22,4 25,9 4 2 14 7 SSE 1018,5 1,4 6 0,0
20.09.2017 19:00:00 19,4 12,4 19,3 22,2 25,9 11 6 21 11 SSW 1018,2 53 60 0,0
20.09.2017 18:00:00 20,9 13,3 22,2 21,9 25,9 14 8 22 12 SW 1017,8 40 60 0,0
20.09.2017 17:00:00 21,3 12,7 23,9 21,6 25,9 16 9 31 17 SW 1017,6 20 60 0,0
20.09.2017 16:00:00 21,5 12,3 24,0 21,3 25,9 19 10 32 18 SW 1017,7 20 60 0,0
20.09.2017 15:00:00 21,6 13,2 27,9 21,0 25,9 20 11 29 15 SW 1017,6 20 60 0,0
20.09.2017 14:00:00 22,2 13,8 27,9 20,9 25,9 21 11 27 15 SW 1017,4 20 60 0,0
20.09.2017 13:00:00 21,4 13,8 28,2 20,8 25,9 20 11 26 14 SW 1017,3 20 60 0,0
20.09.2017 12:00:00 20,9 12,6 28,9 20,8 25,9 13 7 16 9 SW 1017,4 60 60 0,0
20.09.2017 11:00:00 20,0 10,4 23,7 20,9 25,9 7 4 10 5 WSW 1017,4 60 60 0,0
20.09.2017 10:00:00 17,7 9,3 17,3 21,1 26,0 6 4 13 7 NE 1017,1 60 60 0,0
20.09.2017 09:00:00 13,7 8,5 11,4 21,3 26,0 8 5 21 12 NE 1016,7 60 60 0,0
20.09.2017 08:00:00 10,6 7,5 9,2 21,5 26,0 11 6 21 11 NNE 1016,3 60 5 0,0
20.09.2017 07:00:00 9,9 7,1 8,8 21,6 26,0 13 7 21 11 NNE 1016,0 30 0 0,0
20.09.2017 06:00:00 10,1 7,3 9,1 21,8 26,0 12 6 16 9 NE 1015,8 30 0 0,0
20.09.2017 05:00:00 10,7 7,4 9,7 22,0 26,1 9 5 18 10 NNE 1015,6 60 0 0,0
20.09.2017 04:00:00 10,6 7,5 9,8 22,2 26,1 11 6 20 11 NNE 1015,5 60 0 0,0
20.09.2017 03:00:00 10,9 7,6 10,0 22,3 26,0 11 6 19 10 NNE 1015,6 54 0 0,0
20.09.2017 02:00:00 10,8 8,0 10,0 22,5 26,1 14 7 20 11 NNE 1015,5 60 0 0,0
20.09.2017 01:00:00 11,3 8,2 10,5 22,7 26,1 8 4 18 10 NNE 1015,3 60 0 0,0
20.09.2017 00:00:00 11,7 8,2 10,8 22,8 26,1 11 6 18 10 NE 1014,8 60 0 0,0
19.09.2017 23:00:00 12,6 8,1 11,7 22,9 26,1 13 7 22 12 NNE 1014,5 60 0 0,0
19.09.2017 22:00:00 13,4 7,8 12,0 23,0 26,2 9 5 21 12 NE 1013,7 60 0 0,0
19.09.2017 21:00:00 14,3 8,0 11,2 23,0 26,1 13 7 34 19 NE 1013,3 60 0 0,4
19.09.2017 20:00:00 18,7 10,0 17,9 23,0 26,2 19 10 42 23 WNW 1012,8 34 0 0,0
19.09.2017 19:00:00 19,0 11,1 17,5 22,9 26,2 19 11 34 19 W 1012,7 20 0 0,0
19.09.2017 18:00:00 18,7 8,6 19,0 22,8 26,2 10 6 27 14 W 1013,4 53 3 0,0
19.09.2017 17:00:00 19,5 9,9 21,1 22,7 26,2 18 10 28 15 W 1013,3 30 33 0,0
19.09.2017 16:00:00 20,3 10,4 20,0 22,6 26,2 12 6 36 19 WSW 1013,3 30 15 0,0
19.09.2017 15:00:00 18,8 10,1 20,0 22,4 26,2 15 8 28 15 W 1013,7 30 0 0,0
19.09.2017 14:00:00 19,5 11,5 21,7 22,3 26,2 19 11 32 17 WSW 1013,9 30 0 0,0
19.09.2017 13:00:00 19,7 11,7 22,6 22,3 26,3 21 11 35 19 SW 1013,7 30 21 0,0
19.09.2017 12:00:00 20,4 12,4 23,9 22,3 26,3 16 8 22 12 SW 1014,0 30 38 0,0
19.09.2017 11:00:00 19,1 11,4 23,5 22,4 26,3 7 4 11 6 S 1014,2 30 53 0,0
19.09.2017 10:00:00 17,0 13,3 16,4 22,5 26,3 5 3 10 6 E 1014,1 56 47 0,0
19.09.2017 09:00:00 14,3 12,8 13,7 22,6 26,3 9 5 11 6 NE 1014,1 30 37 0,0
19.09.2017 08:00:00 13,4 12,6 11,9 22,8 26,3 9 5 12 7 NE 1013,9 30 1 0,0
19.09.2017 07:00:00 12,9 12,1 11,9 22,9 26,4 7 4 12 7 ENE 1013,4 30 0 0,0
19.09.2017 06:00:00 13,9 12,9 12,9 23,0 26,3 5 3 13 7 ENE 1013,4 30 0 0,0
19.09.2017 05:00:00 14,2 13,2 13,2 23,1 26,4 7 4 10 5 NE 1013,6 34 0 0,0
19.09.2017 04:00:00 14,4 13,3 13,6 23,2 26,4 4 2 8 4 ENE 1013,8 38 0 0,0
19.09.2017 03:00:00 14,8 13,5 13,8 23,3 26,4 4 2 9 5 ENE 1014,2 51 0 0,0
19.09.2017 02:00:00 15,3 13,8 14,5 23,4 26,4 4 2 7 4 N 1014,5 58 0 0,0
19.09.2017 01:00:00 15,4 13,4 14,1 23,5 26,4 2 1 9 5 NE 1014,8 60 0 0,0
19.09.2017 00:00:00 15,8 14,7 14,6 23,6 26,4 4 2 10 5 NE 1015,3 45 0 0,0
18.09.2017 23:00:00 16,3 15,2 15,6 23,8 26,4 4 2 6 3 E 1015,1 21 0 0,0
18.09.2017 22:00:00 16,5 15,4 15,6 23,9 26,4 4 2 9 5 NNE 1015,2 23 0 0,6
18.09.2017 21:00:00 16,3 15,2 15,5 24,1 26,4 4 2 21 11 NNE 1015,0 15 0 1,8
18.09.2017 20:00:00 16,1 14,8 15,4 24,2 26,4 9 5 16 9 NE 1014,4 1,9 0 4,5
18.09.2017 19:00:00 16,4 15,1 15,4 24,4 26,4 5 3 14 8 NNE 1014,4 7 0 4,6
18.09.2017 18:00:00 16,8 15,1 15,8 24,4 26,5 9 5 14 8 NE 1015,0 8 0 2,0
18.09.2017 17:00:00 17,0 14,8 16,1 24,3 26,4 11 6 27 14 ENE 1015,5 15 0 1,6
18.09.2017 16:00:00 17,4 15,4 16,4 24,2 26,5 5 3 15 8 ESE 1016,4 8 0 4,5
18.09.2017 15:00:00 17,6 14,9 16,6 24,1 26,5 15 8 31 17 SSW 1016,6 8 0 4,0
18.09.2017 14:00:00 19,6 16,6 18,7 23,9 26,5 28 15 38 20 SSW 1016,6 12 0 0,2
18.09.2017 13:00:00 23,3 13,5 28,7 23,9 26,5 15 8 20 11 SSW 1016,5 50 29 0,0
18.09.2017 12:00:00 24,1 10,7 33,2 24,0 26,5 8 4 13 7 SSW 1016,9 50 60 0,0
18.09.2017 11:00:00 22,9 8,9 26,9 24,1 26,5 6 3 11 6 SW 1017,3 50 60 0,0
18.09.2017 10:00:00 20,1 9,3 15,3 24,3 26,5 7 4 13 7 NNE 1017,8 50 57 0,0
18.09.2017 09:00:00 14,8 9,2 13,2 24,4 26,5 9 5 17 9 NNE 1017,6 50 15 0,0
18.09.2017 08:00:00 12,9 9,0 11,6 24,6 26,5 13 7 17 9 NE 1017,7 57 5 0,0
18.09.2017 07:00:00 12,5 8,8 11,8 24,8 26,5 10 6 15 8 NE 1017,7 60 0 0,0
18.09.2017 06:00:00 13,0 8,9 12,2 24,9 26,5 12 6 19 11 NNE 1017,4 45 0 0,0
18.09.2017 05:00:00 13,2 9,3 12,3 25,1 26,6 12 6 18 10 NE 1017,8 60 0 0,0
18.09.2017 04:00:00 13,4 9,1 12,5 25,3 26,6 9 5 19 10 NE 1018,1 60 0 0,0
18.09.2017 03:00:00 14,1 9,3 13,2 25,4 26,6 12 6 16 9 NNE 1018,5 60 0 0,0
18.09.2017 02:00:00 14,0 9,4 12,9 25,6 26,6 10 5 17 9 NNE 1019,0 60 0 0,0
18.09.2017 01:00:00 14,4 9,2 13,6 25,7 26,6 8 5 14 8 NE 1019,1 60 0 0,0
18.09.2017 00:00:00 14,8 9,4 13,7 25,7 26,6 9 5 18 10 NNE 1019,3 60 0 0,0
17.09.2017 23:00:00 15,5 9,2 14,8 25,8 26,6 9 5 14 8 NE 1019,4 60 0 0,0
17.09.2017 22:00:00 15,9 9,6 14,9 25,7 26,6 9 5 13 7 NE 1019,6 60 0 0,0

tt = Température de l'air
td = dewpoint
tt 5cm = Température de l'air 5cm
tt -20cm = Température de l'air -20cm
tt -100cm = Température de l'air -100cm
ff = Vitesse du vent
fx = gusts
dd = Direction du vent
ppp = reduced air pressure
vv = visibility
sd = Ensoleillement
rr = Quantités de précipitations

stations d'obs. à proximité